ONEWEB-0215 (48800 NORAD) Tracking and Keplerian Element Data

This shows tracking and keplerian element data for the satellite.

Feedback or suggestion? Click here.




ElementValue
Catalog48800
NameONEWEB-0215
Epoch Orbit191
Epoch Day170.58334491
Epoch Year2021
RAAN268.8911
Inclination87.4027
Eccentricity0.0008099
Argument of Perigee190.3507
Mean Anonmoly108.3243
Mean Motion15.28615805
Decay Rate-0.00902084
L11 48800U 21045AK 21170.58334491 -.00902084 00000-0 -35354-1 0 9996
L22 48800 87.4027 268.8911 0008099 190.3507 108.3243 15.28615805 1919

Live tracking and technical data element details for ONEWEB-0215 (NORAD 48800). ONEWEB-0215 can be tracked NOW for your location showing map with azimuth and elevation plus other details from your city location.

Track the satellite on the map from your city or location and see movement details for azimuth, elevation, latitude, longitude, range, height, and movement on the map or in text.







IsCatalogInMostPopularTable: catalog: 48800, numindb: 8
Update: records affected: 1



GetName: 48800 ONEWEB-0215

Hit Count: updated at: Mon, 21 Jun 2021 04:44:46 GMT